• In Hungary
  • List of Countries
  • For 7 days
  • Water Temperature
  • Satellite Maps
  • Weather Map
  • News
  • Weather Widgets
  • user-avatar
    Login

    Hourly Weather Biernatow

    Today, 25 June, Monday

    Time Temperature Precipitation Wind Pressure Humidity
    00:00 +12°C° 0 mm 2 mps 743 mmHg 92%
    01:00 +10°C° 0 mm 2 mps 743 mmHg 92%
    02:00 +10°C° 0.1 mm 2 mps 743 mmHg 93%
    03:00 +11°C° 0.1 mm 1 mps 743 mmHg 94%
    04:00 +11°C° 0.1 mm 1 mps 743 mmHg 94%
    05:00 +12°C° 0 mm 1 mps 743 mmHg 93%
    06:00 +12°C° 0 mm 1 mps 744 mmHg 91%
    07:00 +13°C° 0 mm 1 mps 744 mmHg 89%
    08:00 +14°C° 0 mm 2 mps 744 mmHg 86%
    09:00 +15°C° 0 mm 2 mps 744 mmHg 82%
    10:00 +16°C° 0 mm 2 mps 744 mmHg 78%
    11:00 +17°C° 0.1 mm 2 mps 744 mmHg 73%
    12:00 +18°C° 0.1 mm 2 mps 744 mmHg 68%
    13:00 +19°C° 0.1 mm 2 mps 744 mmHg 63%
    14:00 +19°C° 0.1 mm 2 mps 744 mmHg 62%
    15:00 +20°C° 0.1 mm 2 mps 744 mmHg 60%
    16:00 +20°C° 0.1 mm 2 mps 743 mmHg 59%
    17:00 +20°C° 0.1 mm 1 mps 744 mmHg 64%
    18:00 +19°C° 0.1 mm 1 mps 744 mmHg 69%
    19:00 +19°C° 0.1 mm 1 mps 744 mmHg 74%
    20:00 +16°C° 0.2 mm 1 mps 744 mmHg 77%
    21:00 +15°C° 0.2 mm 1 mps 744 mmHg 79%
    22:00 +14°C° 0.2 mm 1 mps 744 mmHg 82%
    23:00 +14°C° 0.1 mm 2 mps 744 mmHg 84%

    Tomorrow, 26 June, Tuesday

    Time Temperature Precipitation Wind Pressure Humidity
    00:00 +13°C° 0.1 mm 2 mps 744 mmHg 85%
    01:00 +13°C° 0.1 mm 2 mps 744 mmHg 87%
    02:00 +13°C° 0 mm 2 mps 744 mmHg 88%
    03:00 +12°C° 0 mm 2 mps 744 mmHg 90%
    04:00 +12°C° 0 mm 2 mps 744 mmHg 91%
    05:00 +14°C° 0 mm 2 mps 744 mmHg 88%
    06:00 +15°C° 0 mm 2 mps 744 mmHg 85%
    07:00 +17°C° 0 mm 3 mps 745 mmHg 82%
    08:00 +18°C° 0.5 mm 3 mps 744 mmHg 77%
    09:00 +19°C° 0.5 mm 3 mps 744 mmHg 72%
    10:00 +20°C° 0.5 mm 4 mps 744 mmHg 67%
    11:00 +20°C° 0.3 mm 4 mps 744 mmHg 65%
    12:00 +21°C° 0.3 mm 4 mps 744 mmHg 63%
    13:00 +22°C° 0.3 mm 4 mps 744 mmHg 60%
    14:00 +21°C° 0.6 mm 4 mps 744 mmHg 64%
    15:00 +21°C° 0.6 mm 4 mps 743 mmHg 68%
    16:00 +20°C° 0.6 mm 4 mps 743 mmHg 71%
    17:00 +19°C° 0.5 mm 4 mps 743 mmHg 76%
    18:00 +19°C° 0.5 mm 3 mps 743 mmHg 81%
    19:00 +18°C° 0.5 mm 3 mps 743 mmHg 85%
    20:00 +16°C° 0.2 mm 2 mps 743 mmHg 88%
    21:00 +15°C° 0.2 mm 2 mps 743 mmHg 91%
    22:00 +14°C° 0.2 mm 2 mps 743 mmHg 93%
    23:00 +13°C° 0 mm 2 mps 743 mmHg 94%

    Day after tomorrow, 27 June, Wednesday

    Time Temperature Precipitation Wind Pressure Humidity
    00:00 +13°C° 0 mm 2 mps 743 mmHg 95%
    01:00 +12°C° 0 mm 2 mps 743 mmHg 96%
    02:00 +12°C° 0 mm 2 mps 743 mmHg 96%
    03:00 +11°C° 0 mm 3 mps 743 mmHg 96%
    04:00 +11°C° 0 mm 3 mps 743 mmHg 96%
    05:00 +11°C° 0.1 mm 3 mps 743 mmHg 95%
    06:00 +12°C° 0.1 mm 3 mps 743 mmHg 94%
    07:00 +12°C° 0.1 mm 3 mps 744 mmHg 93%
    08:00 +13°C° 0.1 mm 3 mps 744 mmHg 92%
    09:00 +13°C° 0.1 mm 3 mps 744 mmHg 91%
    10:00 +14°C° 0.1 mm 3 mps 743 mmHg 90%
    11:00 +15°C° 0.1 mm 4 mps 743 mmHg 86%
    12:00 +15°C° 0.1 mm 4 mps 743 mmHg 82%
    13:00 +17°C° 0.1 mm 4 mps 743 mmHg 77%
    14:00 +18°C° 0.1 mm 4 mps 743 mmHg 76%
    15:00 +19°C° 0.1 mm 4 mps 743 mmHg 74%
    16:00 +19°C° 0.1 mm 4 mps 743 mmHg 72%
    17:00 +19°C° 0.2 mm 3 mps 743 mmHg 76%
    18:00 +18°C° 0.2 mm 3 mps 743 mmHg 80%
    19:00 +18°C° 0.2 mm 3 mps 743 mmHg 84%
    20:00 +17°C° 0.1 mm 3 mps 743 mmHg 87%
    21:00 +16°C° 0.1 mm 3 mps 743 mmHg 90%
    22:00 +14°C° 0.1 mm 3 mps 743 mmHg 93%
    23:00 +14°C° 0.6 mm 3 mps 742 mmHg 94%

    28 June, Thursday

    Time Temperature Precipitation Wind Pressure Humidity
    00:00 +14°C° 0.6 mm 3 mps 742 mmHg 94%
    01:00 +14°C° 0.6 mm 3 mps 742 mmHg 95%
    02:00 +14°C° 0.4 mm 3 mps 741 mmHg 96%
    03:00 +14°C° 0.4 mm 4 mps 741 mmHg 96%
    04:00 +14°C° 0.4 mm 4 mps 740 mmHg 97%
    05:00 +14°C° 0.1 mm 5 mps 740 mmHg 96%
    06:00 +15°C° 0.1 mm 6 mps 739 mmHg 95%
    07:00 +15°C° 0.1 mm 6 mps 738 mmHg 94%
    08:00 +16°C° 1.3 mm 7 mps 738 mmHg 94%
    09:00 +16°C° 1.3 mm 7 mps 737 mmHg 94%
    10:00 +17°C° 1.3 mm 8 mps 736 mmHg 94%
    11:00 +17°C° 2.3 mm 7 mps 736 mmHg 94%
    12:00 +17°C° 2.3 mm 7 mps 735 mmHg 93%
    13:00 +17°C° 2.3 mm 7 mps 735 mmHg 93%
    14:00 +18°C° 1.1 mm 7 mps 734 mmHg 93%
    15:00 +19°C° 1.1 mm 6 mps 734 mmHg 93%
    16:00 +20°C° 1.1 mm 6 mps 734 mmHg 93%
    17:00 +20°C° 0.9 mm 5 mps 734 mmHg 93%
    18:00 +20°C° 0.9 mm 4 mps 734 mmHg 93%
    19:00 +20°C° 0.9 mm 4 mps 734 mmHg 93%
    20:00 +19°C° 1.3 mm 3 mps 734 mmHg 94%
    21:00 +18°C° 1.3 mm 2 mps 734 mmHg 95%
    22:00 +19°C° 1.3 mm 1 mps 734 mmHg 96%
    23:00 +18°C° 0.1 mm 1 mps 734 mmHg 96%

    29 June, Friday

    Time Temperature Precipitation Wind Pressure Humidity
    00:00 +18°C° 0.1 mm 1 mps 734 mmHg 96%
    01:00 +16°C° 0.1 mm 2 mps 734 mmHg 96%
    02:00 +16°C° 0 mm 2 mps 734 mmHg 96%
    03:00 +16°C° 0 mm 2 mps 734 mmHg 95%
    04:00 +16°C° 0 mm 2 mps 734 mmHg 95%
    05:00 +17°C° 0 mm 2 mps 734 mmHg 93%
    06:00 +18°C° 0 mm 2 mps 734 mmHg 90%
    07:00 +19°C° 0 mm 2 mps 734 mmHg 88%
    08:00 +20°C° 0.3 mm 3 mps 734 mmHg 84%
    09:00 +21°C° 0.3 mm 3 mps 734 mmHg 80%
    10:00 +22°C° 0.3 mm 3 mps 734 mmHg 75%
    11:00 +22°C° 0.6 mm 4 mps 734 mmHg 75%
    12:00 +23°C° 0.6 mm 4 mps 734 mmHg 74%
    13:00 +23°C° 0.6 mm 4 mps 734 mmHg 73%
    14:00 +23°C° 0.8 mm 4 mps 734 mmHg 75%
    15:00 +23°C° 0.8 mm 4 mps 734 mmHg 78%
    16:00 +22°C° 0.8 mm 4 mps 733 mmHg 80%
    17:00 +21°C° 0.9 mm 4 mps 733 mmHg 84%
    18:00 +20°C° 0.9 mm 4 mps 734 mmHg 87%
    19:00 +19°C° 0.9 mm 4 mps 734 mmHg 91%
    20:00 +18°C° 0.4 mm 4 mps 734 mmHg 92%
    21:00 +18°C° 0.4 mm 4 mps 734 mmHg 94%
    22:00 +17°C° 0.4 mm 4 mps 734 mmHg 95%
    23:00 +17°C° 0.3 mm 4 mps 734 mmHg 95%

    30 June, Saturday

    Time Temperature Precipitation Wind Pressure Humidity
    00:00 +17°C° 0.3 mm 4 mps 734 mmHg 94%
    01:00 +15°C° 0.3 mm 4 mps 735 mmHg 94%
    02:00 +16°C° 0.2 mm 3 mps 735 mmHg 94%
    03:00 +16°C° 0.2 mm 3 mps 735 mmHg 93%
    04:00 +14°C° 0.2 mm 3 mps 735 mmHg 93%
    05:00 +16°C° 0 mm 3 mps 735 mmHg 90%
    06:00 +17°C° 0 mm 3 mps 735 mmHg 87%
    07:00 +18°C° 0 mm 3 mps 736 mmHg 83%
    08:00 +19°C° 0 mm 3 mps 736 mmHg 78%
    09:00 +20°C° 0 mm 4 mps 736 mmHg 72%
    10:00 +21°C° 0 mm 4 mps 736 mmHg 66%
    11:00 +22°C° 0 mm 3 mps 736 mmHg 64%
    12:00 +24°C° 0 mm 3 mps 736 mmHg 61%
    13:00 +24°C° 0 mm 3 mps 736 mmHg 59%
    14:00 +24°C° 0.1 mm 3 mps 736 mmHg 60%
    15:00 +24°C° 0.1 mm 2 mps 736 mmHg 61%
    16:00 +24°C° 0.1 mm 2 mps 736 mmHg 62%
    17:00 +23°C° 0.2 mm 2 mps 736 mmHg 67%
    18:00 +23°C° 0.2 mm 2 mps 737 mmHg 73%
    19:00 +22°C° 0.2 mm 1 mps 737 mmHg 78%
    20:00 +20°C° 0 mm 1 mps 737 mmHg 81%
    21:00 +19°C° 0 mm 1 mps 737 mmHg 85%
    22:00 +18°C° 0 mm 1 mps 738 mmHg 88%
    23:00 +16°C° 0 mm 1 mps 738 mmHg 89%
    Show more